Data supplied by UK-AIR on 21/3/2020
All Data GMT hour ending 
Status: R =Ratified P=Provisional,P*=As supplied
,,Charlton Mackrell,,,,,,,,,,,,,,,,,,,,,,,
Date,time,"Nitric oxide",status,unit,"Nitrogen dioxide",status,unit,"Nitrogen oxides as nitrogen dioxide",status,unit,"Ozone",status,unit
 
01-01-2019,01:00,0.51778,R,ugm-3,2.17339,R,ugm-3,2.96731,R,ugm-3,,,
01-01-2019,02:00,0.42070,R,ugm-3,1.93447,R,ugm-3,2.57954,R,ugm-3,,,
01-01-2019,03:00,0.03236,R,ugm-3,1.46775,R,ugm-3,1.51737,R,ugm-3,,,
01-01-2019,04:00,0.25889,R,ugm-3,1.82852,R,ugm-3,2.22548,R,ugm-3,,,
01-01-2019,05:00,0.38834,R,ugm-3,1.63004,R,ugm-3,2.22548,R,ugm-3,,,
01-01-2019,06:00,0.29125,R,ugm-3,2.33527,R,ugm-3,2.78185,R,ugm-3,,,
01-01-2019,07:00,0.35598,R,ugm-3,1.98313,R,ugm-3,2.52896,R,ugm-3,,,
01-01-2019,08:00,0.25889,R,ugm-3,2.94126,R,ugm-3,3.33822,R,ugm-3,,,
01-01-2019,09:00,2.00641,R,ugm-3,7.39343,R,ugm-3,10.46988,R,ugm-3,,,
01-01-2019,10:00,1.00321,R,ugm-3,9.13397,R,ugm-3,10.67219,R,ugm-3,,,
01-01-2019,11:00,0.84140,R,ugm-3,6.80254,R,ugm-3,8.09266,R,ugm-3,,,
01-01-2019,12:00,0.51778,R,ugm-3,4.21341,R,ugm-3,5.00733,R,ugm-3,,,
01-01-2019,13:00,0.55014,R,ugm-3,4.41669,R,ugm-3,5.26023,R,ugm-3,,,
01-01-2019,14:00,0.29125,R,ugm-3,3.49859,R,ugm-3,3.94517,R,ugm-3,,,
01-01-2019,15:00,0.32361,R,ugm-3,2.79144,R,ugm-3,3.28764,R,ugm-3,,,
01-01-2019,16:00,0.25889,R,ugm-3,3.95284,R,ugm-3,4.34981,R,ugm-3,,,
01-01-2019,17:00,0.00000,R,ugm-3,4.40038,R,ugm-3,4.40038,R,ugm-3,,,
01-01-2019,18:00,0.29125,R,ugm-3,4.35844,R,ugm-3,4.80502,R,ugm-3,,,
01-01-2019,19:00,0.22653,R,ugm-3,4.50825,R,ugm-3,4.85560,R,ugm-3,,,
01-01-2019,20:00,0.35598,R,ugm-3,4.91672,R,ugm-3,5.46255,R,ugm-3,,,
01-01-2019,21:00,0.25889,R,ugm-3,4.40805,R,ugm-3,4.80502,R,ugm-3,,,
01-01-2019,22:00,0.35598,R,ugm-3,4.05688,R,ugm-3,4.60270,R,ugm-3,,,
01-01-2019,23:00,0.22653,R,ugm-3,4.00246,R,ugm-3,4.34981,R,ugm-3,,,
01-01-2019,24:00,0.42070,R,ugm-3,5.52559,R,ugm-3,6.17065,R,ugm-3,,,
02-01-2019,01:00,0.25900,R,ugm-3,6.08100,R,ugm-3,6.47812,R,ugm-3,,,
02-01-2019,02:00,0.34533,R,ugm-3,6.55595,R,ugm-3,7.08545,R,ugm-3,,,
02-01-2019,03:00,0.55037,R,ugm-3,6.08973,R,ugm-3,6.93362,R,ugm-3,,,
02-01-2019,04:00,0.25900,R,ugm-3,4.86635,R,ugm-3,5.26348,R,ugm-3,,,
02-01-2019,05:00,0.42087,R,ugm-3,4.36510,R,ugm-3,5.01042,R,ugm-3,,,
02-01-2019,06:00,0.25900,R,ugm-3,4.56269,R,ugm-3,4.95981,R,ugm-3,,,
02-01-2019,07:00,0.29137,R,ugm-3,6.84112,R,ugm-3,7.28789,R,ugm-3,,,
02-01-2019,08:00,0.29137,R,ugm-3,9.32103,R,ugm-3,9.76779,R,ugm-3,,,
02-01-2019,09:00,0.64750,R,ugm-3,14.08907,R,ugm-3,15.08188,R,ugm-3,,,
02-01-2019,10:00,1.23024,R,ugm-3,12.13272,R,ugm-3,14.01906,R,ugm-3,,,
02-01-2019,11:00,1.68349,R,ugm-3,11.43775,R,ugm-3,14.01906,R,ugm-3,,,
02-01-2019,12:00,2.94610,R,ugm-3,14.36037,R,ugm-3,18.87765,R,ugm-3,,,
02-01-2019,13:00,2.03961,R,ugm-3,15.54786,R,ugm-3,18.67521,R,ugm-3,,,
02-01-2019,14:00,0.58275,R,ugm-3,8.41877,R,ugm-3,9.31230,R,ugm-3,,,
02-01-2019,15:00,0.22662,R,ugm-3,4.56172,R,ugm-3,4.90920,R,ugm-3,,,
02-01-2019,16:00,0.38850,R,ugm-3,4.56657,R,ugm-3,5.16225,R,ugm-3,,,
02-01-2019,17:00,0.42087,R,ugm-3,6.03524,R,ugm-3,6.68056,R,ugm-3,,,
02-01-2019,18:00,0.12950,R,ugm-3,7.64604,R,ugm-3,7.84460,R,ugm-3,,,
02-01-2019,19:00,0.29137,R,ugm-3,7.80272,R,ugm-3,8.24949,R,ugm-3,,,
02-01-2019,20:00,0.19425,R,ugm-3,8.45774,R,ugm-3,8.75559,R,ugm-3,,,
02-01-2019,21:00,0.22662,R,ugm-3,9.11665,R,ugm-3,9.46413,R,ugm-3,,,
02-01-2019,22:00,0.29137,R,ugm-3,6.03136,R,ugm-3,6.47812,R,ugm-3,,,
02-01-2019,23:00,0.42087,R,ugm-3,5.07364,R,ugm-3,5.71897,R,ugm-3,,,
02-01-2019,24:00,0.42087,R,ugm-3,4.46632,R,ugm-3,5.11164,R,ugm-3,,,
03-01-2019,01:00,0.30229,R,ugm-3,4.46561,R,ugm-3,4.92911,R,ugm-3,,,
03-01-2019,02:00,0.38866,R,ugm-3,4.26566,R,ugm-3,4.86159,R,ugm-3,,,
03-01-2019,03:00,0.29149,R,ugm-3,4.56656,R,ugm-3,5.01351,R,ugm-3,,,
03-01-2019,04:00,0.35627,R,ugm-3,4.11275,R,ugm-3,4.65902,R,ugm-3,,,
03-01-2019,05:00,0.38866,R,ugm-3,4.01245,R,ugm-3,4.60838,R,ugm-3,,,
03-01-2019,06:00,0.45343,R,ugm-3,3.91313,R,ugm-3,4.60838,R,ugm-3,,,
03-01-2019,07:00,0.22672,R,ugm-3,7.34989,R,ugm-3,7.69751,R,ugm-3,,,
03-01-2019,08:00,0.45343,R,ugm-3,9.83819,R,ugm-3,10.53344,R,ugm-3,,,
03-01-2019,09:00,0.32388,R,ugm-3,10.84710,R,ugm-3,11.34371,R,ugm-3,,,
03-01-2019,10:00,0.55060,R,ugm-3,11.05653,R,ugm-3,11.90076,R,ugm-3,,,
03-01-2019,11:00,0.51821,R,ugm-3,8.72604,R,ugm-3,9.52061,R,ugm-3,,,
03-01-2019,12:00,0.58298,R,ugm-3,7.46196,R,ugm-3,8.35585,R,ugm-3,,,
03-01-2019,13:00,0.45343,R,ugm-3,5.48302,R,ugm-3,6.17827,R,ugm-3,,,
03-01-2019,14:00,0.68015,R,ugm-3,4.73026,R,ugm-3,5.77314,R,ugm-3,,,
03-01-2019,15:00,0.35627,R,ugm-3,5.63200,R,ugm-3,6.17827,R,ugm-3,,,
03-01-2019,16:00,0.22672,R,ugm-3,8.05887,R,ugm-3,8.40650,R,ugm-3,,,
03-01-2019,17:00,0.38866,R,ugm-3,10.19072,R,ugm-3,10.78665,R,ugm-3,,,
03-01-2019,18:00,1.58701,R,ugm-3,17.87388,R,ugm-3,20.30726,R,ugm-3,,,
03-01-2019,19:00,0.22672,R,ugm-3,18.08590,R,ugm-3,18.43352,R,ugm-3,,,
03-01-2019,20:00,0.32388,R,ugm-3,16.01253,R,ugm-3,16.50914,R,ugm-3,,,
03-01-2019,21:00,0.22672,R,ugm-3,13.83201,R,ugm-3,14.17963,R,ugm-3,,,
03-01-2019,22:00,0.22672,R,ugm-3,13.17367,R,ugm-3,13.52129,R,ugm-3,,,
03-01-2019,23:00,0.25910,R,ugm-3,10.89578,R,ugm-3,11.29306,R,ugm-3,,,
03-01-2019,24:00,0.48582,R,ugm-3,8.92762,R,ugm-3,9.67253,R,ugm-3,,,
04-01-2019,01:00,0.30241,R,ugm-3,9.26548,R,ugm-3,9.72917,R,ugm-3,,,
04-01-2019,02:00,0.08640,R,ugm-3,8.98861,R,ugm-3,9.12110,R,ugm-3,,,
04-01-2019,03:00,0.22681,R,ugm-3,8.41862,R,ugm-3,8.76639,R,ugm-3,,,
04-01-2019,04:00,0.25921,R,ugm-3,7.96355,R,ugm-3,8.36100,R,ugm-3,,,
04-01-2019,05:00,0.32401,R,ugm-3,8.47227,R,ugm-3,8.96908,R,ugm-3,,,
04-01-2019,06:00,5.89702,R,ugm-3,11.93655,R,ugm-3,20.97852,R,ugm-3,,,
04-01-2019,07:00,0.25921,R,ugm-3,11.40930,R,ugm-3,11.80675,R,ugm-3,,,
04-01-2019,08:00,0.58322,R,ugm-3,19.32417,R,ugm-3,20.21843,R,ugm-3,,,
04-01-2019,09:00,2.43009,R,ugm-3,22.97845,R,ugm-3,26.70454,R,ugm-3,,,
04-01-2019,10:00,2.68930,R,ugm-3,25.92540,R,ugm-3,30.04894,R,ugm-3,,,
04-01-2019,11:00,5.70261,R,ugm-3,23.73735,R,ugm-3,32.48123,R,ugm-3,,,
04-01-2019,12:00,6.25344,R,ugm-3,24.91968,R,ugm-3,34.50814,R,ugm-3,,,
04-01-2019,13:00,5.08699,R,ugm-3,20.42478,R,ugm-3,28.22472,R,ugm-3,,,
04-01-2019,14:00,3.56413,R,ugm-3,16.32435,R,ugm-3,21.78928,R,ugm-3,,,
04-01-2019,15:00,2.55970,R,ugm-3,15.63487,R,ugm-3,19.55968,R,ugm-3,,,
04-01-2019,16:00,1.23125,R,ugm-3,16.30363,R,ugm-3,18.19152,R,ugm-3,,,
04-01-2019,17:00,0.58322,R,ugm-3,19.72955,R,ugm-3,20.62381,R,ugm-3,,,
04-01-2019,18:00,0.16201,R,ugm-3,20.07137,R,ugm-3,20.31977,R,ugm-3,,,
04-01-2019,19:00,0.19441,R,ugm-3,22.35263,R,ugm-3,22.65072,R,ugm-3,,,
04-01-2019,20:00,0.12960,R,ugm-3,19.71567,R,ugm-3,19.91439,R,ugm-3,,,
04-01-2019,21:00,0.19441,R,ugm-3,22.85936,R,ugm-3,23.15745,R,ugm-3,,,
04-01-2019,22:00,0.55082,R,ugm-3,20.38730,R,ugm-3,21.23188,R,ugm-3,,,
04-01-2019,23:00,0.22681,R,ugm-3,13.68859,R,ugm-3,14.03635,R,ugm-3,,,
04-01-2019,24:00,0.48602,R,ugm-3,23.67905,R,ugm-3,24.42427,R,ugm-3,,,
05-01-2019,01:00,0.21610,R,ugm-3,34.21496,R,ugm-3,34.54630,R,ugm-3,,,
05-01-2019,02:00,0.42139,R,ugm-3,27.44388,R,ugm-3,28.09000,R,ugm-3,,,
05-01-2019,03:00,0.38897,R,ugm-3,23.58937,R,ugm-3,24.18579,R,ugm-3,,,
05-01-2019,04:00,0.51863,R,ugm-3,24.25253,R,ugm-3,25.04776,R,ugm-3,,,
05-01-2019,05:00,2.30143,R,ugm-3,23.74993,R,ugm-3,27.27873,R,ugm-3,,,
05-01-2019,06:00,4.24630,R,ugm-3,27.46076,R,ugm-3,33.97166,R,ugm-3,,,
05-01-2019,07:00,0.64829,R,ugm-3,24.66218,R,ugm-3,25.65621,R,ugm-3,,,
05-01-2019,08:00,0.42139,R,ugm-3,16.18760,R,ugm-3,16.83372,R,ugm-3,,,
05-01-2019,09:00,0.58346,R,ugm-3,15.83768,R,ugm-3,16.73231,R,ugm-3,,,
05-01-2019,10:00,4.89459,R,ugm-3,21.80197,R,ugm-3,29.30689,R,ugm-3,,,
05-01-2019,11:00,10.76161,R,ugm-3,23.50453,R,ugm-3,40.00543,R,ugm-3,,,
05-01-2019,12:00,9.01122,R,ugm-3,24.00814,R,ugm-3,37.82516,R,ugm-3,,,
05-01-2019,13:00,15.98034,R,ugm-3,27.62083,R,ugm-3,52.12368,R,ugm-3,,,
05-01-2019,14:00,24.18120,R,ugm-3,31.42374,R,ugm-3,68.50106,R,ugm-3,,,
05-01-2019,15:00,12.57682,R,ugm-3,29.89866,R,ugm-3,49.18285,R,ugm-3,,,
05-01-2019,16:00,8.36293,R,ugm-3,36.25845,R,ugm-3,49.08144,R,ugm-3,,,
05-01-2019,17:00,2.13936,R,ugm-3,28.51109,R,ugm-3,31.79138,R,ugm-3,,,
05-01-2019,18:00,10.24297,R,ugm-3,31.60112,R,ugm-3,47.30680,R,ugm-3,,,
05-01-2019,19:00,12.05818,R,ugm-3,36.16991,R,ugm-3,54.65887,R,ugm-3,,,
05-01-2019,20:00,5.70495,R,ugm-3,32.22134,R,ugm-3,40.96880,R,ugm-3,,,
05-01-2019,21:00,0.32415,R,ugm-3,17.65501,R,ugm-3,18.15202,R,ugm-3,,,
05-01-2019,22:00,0.22690,R,ugm-3,12.83512,R,ugm-3,13.18303,R,ugm-3,,,
05-01-2019,23:00,0.06483,R,ugm-3,12.32307,R,ugm-3,12.42247,R,ugm-3,,,
05-01-2019,24:00,-0.09724,R,ugm-3,13.53495,R,ugm-3,13.38585,R,ugm-3,,,
06-01-2019,01:00,0.25942,R,ugm-3,11.98161,R,ugm-3,12.37938,R,ugm-3,,,
06-01-2019,02:00,0.06486,R,ugm-3,10.85936,R,ugm-3,10.95880,R,ugm-3,,,
06-01-2019,03:00,0.16214,R,ugm-3,9.23887,R,ugm-3,9.48748,R,ugm-3,,,
06-01-2019,04:00,0.12971,R,ugm-3,8.52756,R,ugm-3,8.72645,R,ugm-3,,,
06-01-2019,05:00,0.35671,R,ugm-3,8.17951,R,ugm-3,8.72645,R,ugm-3,,,
06-01-2019,06:00,0.16214,R,ugm-3,7.86902,R,ugm-3,8.11763,R,ugm-3,,,
06-01-2019,07:00,0.22699,R,ugm-3,8.27693,R,ugm-3,8.62498,R,ugm-3,,,
06-01-2019,08:00,0.22699,R,ugm-3,8.88575,R,ugm-3,9.23380,R,ugm-3,,,
06-01-2019,09:00,0.22699,R,ugm-3,11.57471,R,ugm-3,11.92277,R,ugm-3,,,
06-01-2019,10:00,0.38913,R,ugm-3,11.63052,R,ugm-3,12.22718,R,ugm-3,,,
06-01-2019,11:00,1.03769,R,ugm-3,19.05812,R,ugm-3,20.64922,R,ugm-3,,,
06-01-2019,12:00,0.90798,R,ugm-3,14.58937,R,ugm-3,15.98158,R,ugm-3,,,
06-01-2019,13:00,2.65907,R,ugm-3,18.55070,R,ugm-3,22.62789,R,ugm-3,,,
06-01-2019,14:00,4.15075,R,ugm-3,23.11274,R,ugm-3,29.47714,R,ugm-3,,,
06-01-2019,15:00,1.78353,R,ugm-3,21.06010,R,ugm-3,23.79480,R,ugm-3,,,
06-01-2019,16:00,4.86416,R,ugm-3,26.68650,R,ugm-3,34.14477,R,ugm-3,,,
06-01-2019,17:00,2.43208,R,ugm-3,28.94431,R,ugm-3,32.67345,R,ugm-3,,,
06-01-2019,18:00,4.89659,R,ugm-3,34.65293,R,ugm-3,42.16093,R,ugm-3,,,
06-01-2019,19:00,3.43734,R,ugm-3,38.31100,R,ugm-3,43.58152,R,ugm-3,,,
06-01-2019,20:00,1.13497,R,ugm-3,33.11480,R,ugm-3,34.85506,R,ugm-3,,,
06-01-2019,21:00,9.40404,R,ugm-3,37.38128,R,ugm-3,51.80061,R,ugm-3,,,
06-01-2019,22:00,17.67311,R,ugm-3,40.88674,R,ugm-3,67.98513,R,ugm-3,,,
06-01-2019,23:00,6.61526,R,ugm-3,35.11252,R,ugm-3,45.25577,R,ugm-3,,,
06-01-2019,24:00,4.92902,R,ugm-3,34.90762,R,ugm-3,42.46534,R,ugm-3,,,
07-01-2019,01:00,0.30578,R,ugm-3,22.21883,R,ugm-3,22.68768,R,ugm-3,,,
07-01-2019,02:00,0.42591,R,ugm-3,15.75681,R,ugm-3,16.40986,R,ugm-3,,,
07-01-2019,03:00,0.39315,R,ugm-3,13.73688,R,ugm-3,14.33969,R,ugm-3,,,
07-01-2019,04:00,0.26210,R,ugm-3,9.44404,R,ugm-3,9.84592,R,ugm-3,,,
07-01-2019,05:00,0.39315,R,ugm-3,7.72835,R,ugm-3,8.33116,R,ugm-3,,,
07-01-2019,06:00,0.75353,R,ugm-3,8.48856,R,ugm-3,9.64395,R,ugm-3,,,
07-01-2019,07:00,1.80192,R,ugm-3,9.45614,R,ugm-3,12.21904,R,ugm-3,,,
07-01-2019,08:00,0.62248,R,ugm-3,8.89146,R,ugm-3,9.84592,R,ugm-3,,,
07-01-2019,09:00,0.43683,R,ugm-3,7.40891,R,ugm-3,8.07870,R,ugm-3,,,
07-01-2019,10:00,,,,,,,,,,,,
07-01-2019,11:00,,,,,,,,,,,,
07-01-2019,12:00,1.00470,R,ugm-3,10.44288,R,ugm-3,11.98341,R,ugm-3,,,
07-01-2019,13:00,0.49143,R,ugm-3,7.57764,R,ugm-3,8.33116,R,ugm-3,,,
07-01-2019,14:00,0.42591,R,ugm-3,6.66827,R,ugm-3,7.32132,R,ugm-3,,,
07-01-2019,15:00,0.45867,R,ugm-3,7.47640,R,ugm-3,8.17968,R,ugm-3,,,
07-01-2019,16:00,1.99849,R,ugm-3,10.82096,R,ugm-3,13.88527,R,ugm-3,,,
07-01-2019,17:00,0.39315,R,ugm-3,9.69753,R,ugm-3,10.30034,R,ugm-3,,,
07-01-2019,18:00,0.26210,R,ugm-3,9.19158,R,ugm-3,9.59346,R,ugm-3,,,
07-01-2019,19:00,0.78629,R,ugm-3,8.64029,R,ugm-3,9.84592,R,ugm-3,,,
07-01-2019,20:00,0.32762,R,ugm-3,7.67734,R,ugm-3,8.17968,R,ugm-3,,,
07-01-2019,21:00,0.29486,R,ugm-3,3.58724,R,ugm-3,4.03935,R,ugm-3,,,
07-01-2019,22:00,0.19657,R,ugm-3,2.67762,R,ugm-3,2.97902,R,ugm-3,,,
07-01-2019,23:00,0.26210,R,ugm-3,2.57715,R,ugm-3,2.97902,R,ugm-3,,,
07-01-2019,24:00,0.03276,R,ugm-3,2.77731,R,ugm-3,2.82755,R,ugm-3,,,
08-01-2019,01:00,0.00000,R,ugm-3,3.09390,R,ugm-3,3.09390,R,ugm-3,,,
08-01-2019,02:00,0.26208,R,ugm-3,2.69205,R,ugm-3,3.09390,R,ugm-3,,,
08-01-2019,03:00,0.22932,R,ugm-3,3.73434,R,ugm-3,4.08596,R,ugm-3,,,
08-01-2019,04:00,0.03276,R,ugm-3,4.08618,R,ugm-3,4.13641,R,ugm-3,,,
08-01-2019,05:00,0.19656,R,ugm-3,2.42259,R,ugm-3,2.72398,R,ugm-3,,,
08-01-2019,06:00,0.36036,R,ugm-3,3.38208,R,ugm-3,3.93463,R,ugm-3,,,
08-01-2019,07:00,0.09828,R,ugm-3,2.72461,R,ugm-3,2.87531,R,ugm-3,,,
08-01-2019,08:00,0.16380,R,ugm-3,4.23836,R,ugm-3,4.48952,R,ugm-3,,,
08-01-2019,09:00,0.22932,R,ugm-3,5.60077,R,ugm-3,5.95239,R,ugm-3,,,
08-01-2019,10:00,0.29484,R,ugm-3,6.76141,R,ugm-3,7.21349,R,ugm-3,,,
08-01-2019,11:00,0.55693,R,ugm-3,7.51976,R,ugm-3,8.37370,R,ugm-3,,,
08-01-2019,12:00,0.78625,R,ugm-3,7.31947,R,ugm-3,8.52504,R,ugm-3,,,
08-01-2019,13:00,0.72073,R,ugm-3,6.51194,R,ugm-3,7.61704,R,ugm-3,,,
08-01-2019,14:00,0.72073,R,ugm-3,6.61283,R,ugm-3,7.71793,R,ugm-3,,,
08-01-2019,15:00,0.52417,R,ugm-3,6.96467,R,ugm-3,7.76838,R,ugm-3,,,
08-01-2019,16:00,0.39312,R,ugm-3,7.82137,R,ugm-3,8.42415,R,ugm-3,,,
08-01-2019,17:00,0.09828,R,ugm-3,9.93811,R,ugm-3,10.08880,R,ugm-3,,,
08-01-2019,18:00,0.00000,R,ugm-3,9.73569,R,ugm-3,9.73569,R,ugm-3,,,
08-01-2019,19:00,0.06552,R,ugm-3,9.48390,R,ugm-3,9.58436,R,ugm-3,,,
08-01-2019,20:00,0.16380,R,ugm-3,8.22343,R,ugm-3,8.47459,R,ugm-3,,,
08-01-2019,21:00,0.03276,R,ugm-3,7.41548,R,ugm-3,7.46571,R,ugm-3,,,
08-01-2019,22:00,0.13104,R,ugm-3,10.39231,R,ugm-3,10.59324,R,ugm-3,,,
08-01-2019,23:00,0.00000,R,ugm-3,6.25506,R,ugm-3,6.25506,R,ugm-3,,,
08-01-2019,24:00,0.09828,R,ugm-3,5.19637,R,ugm-3,5.34707,R,ugm-3,,,
09-01-2019,01:00,0.17471,R,ugm-3,3.96539,R,ugm-3,4.23328,R,ugm-3,,,
09-01-2019,02:00,0.36035,R,ugm-3,3.42877,R,ugm-3,3.98129,R,ugm-3,,,
09-01-2019,03:00,0.13104,R,ugm-3,3.47800,R,ugm-3,3.67892,R,ugm-3,,,
09-01-2019,04:00,0.06552,R,ugm-3,3.17529,R,ugm-3,3.27575,R,ugm-3,,,
09-01-2019,05:00,0.06552,R,ugm-3,3.02410,R,ugm-3,3.12456,R,ugm-3,,,
09-01-2019,06:00,0.19655,R,ugm-3,2.72239,R,ugm-3,3.02377,R,ugm-3,,,
09-01-2019,07:00,0.06552,R,ugm-3,2.97371,R,ugm-3,3.07416,R,ugm-3,,,
09-01-2019,08:00,-0.03276,R,ugm-3,4.43469,R,ugm-3,4.38446,R,ugm-3,,,
09-01-2019,09:00,0.26207,R,ugm-3,5.64570,R,ugm-3,6.04754,R,ugm-3,,,
09-01-2019,10:00,0.68793,R,ugm-3,8.16768,R,ugm-3,9.22249,R,ugm-3,,,
09-01-2019,11:00,1.83449,R,ugm-3,11.44927,R,ugm-3,14.26210,R,ugm-3,,,
09-01-2019,12:00,1.96552,R,ugm-3,10.29082,R,ugm-3,13.30458,R,ugm-3,,,
09-01-2019,13:00,1.99828,R,ugm-3,9.63584,R,ugm-3,12.69982,R,ugm-3,,,
09-01-2019,14:00,1.31035,R,ugm-3,8.12045,R,ugm-3,10.12962,R,ugm-3,,,
09-01-2019,15:00,0.75345,R,ugm-3,8.36960,R,ugm-3,9.52487,R,ugm-3,,,
09-01-2019,16:00,0.32759,R,ugm-3,8.46822,R,ugm-3,8.97051,R,ugm-3,,,
09-01-2019,17:00,0.16379,R,ugm-3,9.17293,R,ugm-3,9.42408,R,ugm-3,,,
09-01-2019,18:00,0.13104,R,ugm-3,11.18861,R,ugm-3,11.38953,R,ugm-3,,,
09-01-2019,19:00,0.16379,R,ugm-3,12.70066,R,ugm-3,12.95180,R,ugm-3,,,
09-01-2019,20:00,0.06552,R,ugm-3,14.81679,R,ugm-3,14.91725,R,ugm-3,,,
09-01-2019,21:00,0.13104,R,ugm-3,12.85168,R,ugm-3,13.05260,R,ugm-3,,,
09-01-2019,22:00,0.26207,R,ugm-3,14.41463,R,ugm-3,14.81646,R,ugm-3,,,
09-01-2019,23:00,0.09828,R,ugm-3,13.70825,R,ugm-3,13.85894,R,ugm-3,,,
09-01-2019,24:00,0.22931,R,ugm-3,12.85218,R,ugm-3,13.20379,R,ugm-3,,,
10-01-2019,01:00,-0.04367,R,ugm-3,12.95612,R,ugm-3,12.88915,R,ugm-3,,,
10-01-2019,02:00,0.09827,R,ugm-3,11.07698,R,ugm-3,11.22766,R,ugm-3,,,
10-01-2019,03:00,0.13103,R,ugm-3,9.86874,R,ugm-3,10.06965,R,ugm-3,,,
10-01-2019,04:00,0.09827,R,ugm-3,8.45887,R,ugm-3,8.60955,R,ugm-3,,,
10-01-2019,05:00,0.03276,R,ugm-3,8.35793,R,ugm-3,8.40816,R,ugm-3,,,
10-01-2019,06:00,0.09827,R,ugm-3,10.07001,R,ugm-3,10.22070,R,ugm-3,,,
10-01-2019,07:00,1.47406,R,ugm-3,10.98139,R,ugm-3,13.24159,R,ugm-3,,,
10-01-2019,08:00,5.63419,R,ugm-3,19.90848,R,ugm-3,28.54746,R,ugm-3,,,
10-01-2019,09:00,24.20738,R,ugm-3,30.85267,R,ugm-3,67.97013,R,ugm-3,,,
10-01-2019,10:00,19.42487,R,ugm-3,31.13700,R,ugm-3,60.92138,R,ugm-3,,,
10-01-2019,11:00,15.23198,R,ugm-3,25.02929,R,ugm-3,48.38467,R,ugm-3,,,
10-01-2019,12:00,16.01814,R,ugm-3,24.57908,R,ugm-3,49.13989,R,ugm-3,,,
10-01-2019,13:00,6.02728,R,ugm-3,20.01064,R,ugm-3,29.25233,R,ugm-3,,,
10-01-2019,14:00,1.21201,R,ugm-3,11.18181,R,ugm-3,13.04020,R,ugm-3,,,
10-01-2019,15:00,1.67060,R,ugm-3,17.57774,R,ugm-3,20.13930,R,ugm-3,,,
10-01-2019,16:00,0.62238,R,ugm-3,18.22838,R,ugm-3,19.18268,R,ugm-3,,,
10-01-2019,17:00,0.32757,R,ugm-3,21.80201,R,ugm-3,22.30427,R,ugm-3,,,
10-01-2019,18:00,-0.06551,R,ugm-3,14.50005,R,ugm-3,14.39960,R,ugm-3,,,
10-01-2019,19:00,0.06551,R,ugm-3,13.34253,R,ugm-3,13.44298,R,ugm-3,,,
10-01-2019,20:00,0.03276,R,ugm-3,10.77465,R,ugm-3,10.82487,R,ugm-3,,,
10-01-2019,21:00,0.16378,R,ugm-3,10.97653,R,ugm-3,11.22766,R,ugm-3,,,
10-01-2019,22:00,0.16378,R,ugm-3,11.63105,R,ugm-3,11.88219,R,ugm-3,,,
10-01-2019,23:00,0.16378,R,ugm-3,11.37931,R,ugm-3,11.63044,R,ugm-3,,,
10-01-2019,24:00,0.13103,R,ugm-3,14.04765,R,ugm-3,14.24855,R,ugm-3,,,
11-01-2019,01:00,0.17469,R,ugm-3,11.06649,R,ugm-3,11.33435,R,ugm-3,,,
11-01-2019,02:00,0.39306,R,ugm-3,9.00468,R,ugm-3,9.60737,R,ugm-3,,,
11-01-2019,03:00,0.16378,R,ugm-3,7.34424,R,ugm-3,7.59536,R,ugm-3,,,
11-01-2019,04:00,0.29480,R,ugm-3,5.28223,R,ugm-3,5.73424,R,ugm-3,,,
11-01-2019,05:00,0.09827,R,ugm-3,4.67816,R,ugm-3,4.82884,R,ugm-3,,,
11-01-2019,06:00,0.13102,R,ugm-3,4.57764,R,ugm-3,4.77853,R,ugm-3,,,
11-01-2019,07:00,0.16378,R,ugm-3,4.37651,R,ugm-3,4.62763,R,ugm-3,,,
11-01-2019,08:00,0.13102,R,ugm-3,5.68425,R,ugm-3,5.88514,R,ugm-3,,,
11-01-2019,09:00,0.39306,R,ugm-3,10.21189,R,ugm-3,10.81458,R,ugm-3,,,
11-01-2019,10:00,0.65510,R,ugm-3,9.55860,R,ugm-3,10.56308,R,ugm-3,,,
11-01-2019,11:00,1.31021,R,ugm-3,14.89197,R,ugm-3,16.90093,R,ugm-3,,,
11-01-2019,12:00,1.04817,R,ugm-3,9.30801,R,ugm-3,10.91518,R,ugm-3,,,
11-01-2019,13:00,0.91715,R,ugm-3,6.54119,R,ugm-3,7.94746,R,ugm-3,,,
11-01-2019,14:00,0.81888,R,ugm-3,5.83675,R,ugm-3,7.09235,R,ugm-3,,,
11-01-2019,15:00,0.58959,R,ugm-3,6.74163,R,ugm-3,7.64566,R,ugm-3,,,
11-01-2019,16:00,0.09827,R,ugm-3,5.93567,R,ugm-3,6.08635,R,ugm-3,,,
11-01-2019,17:00,0.13102,R,ugm-3,6.13695,R,ugm-3,6.33785,R,ugm-3,,,
11-01-2019,18:00,0.09827,R,ugm-3,15.09034,R,ugm-3,15.24101,R,ugm-3,,,
11-01-2019,19:00,0.16378,R,ugm-3,20.32173,R,ugm-3,20.57285,R,ugm-3,,,
11-01-2019,20:00,0.16378,R,ugm-3,20.07023,R,ugm-3,20.32135,R,ugm-3,,,
11-01-2019,21:00,0.36031,R,ugm-3,23.13901,R,ugm-3,23.69147,R,ugm-3,,,
11-01-2019,22:00,0.00000,R,ugm-3,19.91895,R,ugm-3,19.91895,R,ugm-3,,,
11-01-2019,23:00,0.13102,R,ugm-3,17.40423,R,ugm-3,17.60513,R,ugm-3,,,
11-01-2019,24:00,0.39306,R,ugm-3,15.99644,R,ugm-3,16.59912,R,ugm-3,,,
12-01-2019,01:00,0.26203,R,ugm-3,10.38576,R,ugm-3,10.78754,R,ugm-3,,,
12-01-2019,02:00,0.26203,R,ugm-3,6.56657,R,ugm-3,6.96835,R,ugm-3,,,
12-01-2019,03:00,1.04811,R,ugm-3,8.09165,R,ugm-3,9.69873,R,ugm-3,,,
12-01-2019,04:00,0.36029,R,ugm-3,3.86979,R,ugm-3,4.42222,R,ugm-3,,,
12-01-2019,05:00,0.19652,R,ugm-3,3.16609,R,ugm-3,3.46742,R,ugm-3,,,
12-01-2019,06:00,0.16377,R,ugm-3,3.11581,R,ugm-3,3.36692,R,ugm-3,,,
12-01-2019,07:00,0.26203,R,ugm-3,2.51287,R,ugm-3,2.91464,R,ugm-3,,,
12-01-2019,08:00,0.32754,R,ugm-3,4.52304,R,ugm-3,5.02525,R,ugm-3,,,
12-01-2019,09:00,0.91710,R,ugm-3,4.12158,R,ugm-3,5.52777,R,ugm-3,,,
12-01-2019,10:00,0.55681,R,ugm-3,4.32224,R,ugm-3,5.17601,R,ugm-3,,,
12-01-2019,11:00,0.75333,R,ugm-3,5.67925,R,ugm-3,6.83434,R,ugm-3,,,
12-01-2019,12:00,0.39304,R,ugm-3,3.21653,R,ugm-3,3.81919,R,ugm-3,,,
12-01-2019,13:00,0.32754,R,ugm-3,2.86470,R,ugm-3,3.36692,R,ugm-3,,,
12-01-2019,14:00,0.32754,R,ugm-3,2.76420,R,ugm-3,3.26641,R,ugm-3,,,
12-01-2019,15:00,0.39304,R,ugm-3,2.81451,R,ugm-3,3.41717,R,ugm-3,,,
12-01-2019,16:00,0.29478,R,ugm-3,3.16619,R,ugm-3,3.61818,R,ugm-3,,,
12-01-2019,17:00,0.19652,R,ugm-3,2.81433,R,ugm-3,3.11565,R,ugm-3,,,
12-01-2019,18:00,0.09826,R,ugm-3,3.11575,R,ugm-3,3.26641,R,ugm-3,,,
12-01-2019,19:00,0.13101,R,ugm-3,2.91477,R,ugm-3,3.11565,R,ugm-3,,,
12-01-2019,20:00,0.22928,R,ugm-3,3.11587,R,ugm-3,3.46742,R,ugm-3,,,
12-01-2019,21:00,0.32754,R,ugm-3,2.26168,R,ugm-3,2.76389,R,ugm-3,,,
12-01-2019,22:00,-0.03275,R,ugm-3,2.36184,R,ugm-3,2.31161,R,ugm-3,,,
12-01-2019,23:00,0.16377,R,ugm-3,2.21127,R,ugm-3,2.46237,R,ugm-3,,,
12-01-2019,24:00,0.19652,R,ugm-3,2.26155,R,ugm-3,2.56288,R,ugm-3,,,
13-01-2019,01:00,0.08734,R,ugm-3,2.47672,R,ugm-3,2.61064,R,ugm-3,,,
13-01-2019,02:00,0.29477,R,ugm-3,2.30929,R,ugm-3,2.76125,R,ugm-3,,,
13-01-2019,03:00,0.22926,R,ugm-3,1.90768,R,ugm-3,2.25921,R,ugm-3,,,
13-01-2019,04:00,0.22926,R,ugm-3,1.90768,R,ugm-3,2.25921,R,ugm-3,,,
13-01-2019,05:00,0.29477,R,ugm-3,2.00806,R,ugm-3,2.46003,R,ugm-3,,,
13-01-2019,06:00,0.06550,R,ugm-3,2.00816,R,ugm-3,2.10859,R,ugm-3,,,
13-01-2019,07:00,0.06550,R,ugm-3,1.85754,R,ugm-3,1.95798,R,ugm-3,,,
13-01-2019,08:00,0.32752,R,ugm-3,2.15866,R,ugm-3,2.66084,R,ugm-3,,,
13-01-2019,09:00,0.09826,R,ugm-3,2.76121,R,ugm-3,2.91187,R,ugm-3,,,
13-01-2019,10:00,0.45853,R,ugm-3,2.66065,R,ugm-3,3.36371,R,ugm-3,,,
13-01-2019,11:00,0.36027,R,ugm-3,2.71089,R,ugm-3,3.26330,R,ugm-3,,,
13-01-2019,12:00,0.42577,R,ugm-3,2.35943,R,ugm-3,3.01228,R,ugm-3,,,
13-01-2019,13:00,0.55678,R,ugm-3,2.45979,R,ugm-3,3.31350,R,ugm-3,,,
13-01-2019,14:00,0.49128,R,ugm-3,2.71084,R,ugm-3,3.46412,R,ugm-3,,,
13-01-2019,15:00,0.29477,R,ugm-3,3.06235,R,ugm-3,3.51432,R,ugm-3,,,
13-01-2019,16:00,0.06550,R,ugm-3,3.06245,R,ugm-3,3.16289,R,ugm-3,,,
13-01-2019,17:00,0.09826,R,ugm-3,2.51019,R,ugm-3,2.66084,R,ugm-3,,,
13-01-2019,18:00,0.36027,R,ugm-3,2.61049,R,ugm-3,3.16289,R,ugm-3,,,
13-01-2019,19:00,0.16376,R,ugm-3,2.96200,R,ugm-3,3.21310,R,ugm-3,,,
13-01-2019,20:00,0.13101,R,ugm-3,2.45997,R,ugm-3,2.66084,R,ugm-3,,,
13-01-2019,21:00,0.39302,R,ugm-3,2.96190,R,ugm-3,3.56453,R,ugm-3,,,
13-01-2019,22:00,0.22926,R,ugm-3,3.26320,R,ugm-3,3.61473,R,ugm-3,,,
13-01-2019,23:00,0.19651,R,ugm-3,3.26322,R,ugm-3,3.56453,R,ugm-3,,,
13-01-2019,24:00,0.26201,R,ugm-3,2.81135,R,ugm-3,3.21310,R,ugm-3,,,
14-01-2019,01:00,0.08733,R,ugm-3,3.81175,R,ugm-3,3.94566,R,ugm-3,,,
14-01-2019,02:00,0.21833,R,ugm-3,5.41653,R,ugm-3,5.75131,R,ugm-3,,,
14-01-2019,03:00,0.19650,R,ugm-3,3.36015,R,ugm-3,3.66144,R,ugm-3,,,
14-01-2019,04:00,0.29475,R,ugm-3,3.20950,R,ugm-3,3.66144,R,ugm-3,,,
14-01-2019,05:00,0.19650,R,ugm-3,3.56077,R,ugm-3,3.86207,R,ugm-3,,,
14-01-2019,06:00,0.26200,R,ugm-3,4.36316,R,ugm-3,4.76489,R,ugm-3,,,
14-01-2019,07:00,0.36025,R,ugm-3,3.66079,R,ugm-3,4.21317,R,ugm-3,,,
14-01-2019,08:00,0.19650,R,ugm-3,3.51062,R,ugm-3,3.81191,R,ugm-3,,,
14-01-2019,09:00,0.29475,R,ugm-3,5.36624,R,ugm-3,5.81818,R,ugm-3,,,
14-01-2019,10:00,0.29475,R,ugm-3,5.86780,R,ugm-3,6.31975,R,ugm-3,,,
14-01-2019,11:00,0.45850,R,ugm-3,4.86437,R,ugm-3,5.56740,R,ugm-3,,,
14-01-2019,12:00,0.68775,R,ugm-3,4.41255,R,ugm-3,5.46708,R,ugm-3,,,
14-01-2019,13:00,0.42575,R,ugm-3,5.36600,R,ugm-3,6.01881,R,ugm-3,,,
14-01-2019,14:00,0.88425,R,ugm-3,9.72881,R,ugm-3,11.08464,R,ugm-3,,,
14-01-2019,15:00,0.62225,R,ugm-3,8.97693,R,ugm-3,9.93104,R,ugm-3,,,
14-01-2019,16:00,0.16375,R,ugm-3,6.57024,R,ugm-3,6.82132,R,ugm-3,,,
14-01-2019,17:00,0.36025,R,ugm-3,6.16863,R,ugm-3,6.72100,R,ugm-3,,,
14-01-2019,18:00,0.16375,R,ugm-3,14.24422,R,ugm-3,14.49530,R,ugm-3,,,
14-01-2019,19:00,0.22925,R,ugm-3,12.03720,R,ugm-3,12.38871,R,ugm-3,,,
14-01-2019,20:00,0.19650,R,ugm-3,14.19400,R,ugm-3,14.49530,R,ugm-3,,,
14-01-2019,21:00,0.78600,R,ugm-3,13.23995,R,ugm-3,14.44514,R,ugm-3,,,
14-01-2019,22:00,0.36025,R,ugm-3,11.98681,R,ugm-3,12.53918,R,ugm-3,,,
14-01-2019,23:00,0.29475,R,ugm-3,8.47596,R,ugm-3,8.92790,R,ugm-3,,,
14-01-2019,24:00,0.16375,R,ugm-3,6.36961,R,ugm-3,6.62069,R,ugm-3,,,
15-01-2019,01:00,0.26199,R,ugm-3,3.80744,R,ugm-3,4.20915,R,ugm-3,,,
15-01-2019,02:00,0.21832,R,ugm-3,2.47134,R,ugm-3,2.80610,R,ugm-3,,,
15-01-2019,03:00,0.49123,R,ugm-3,3.20540,R,ugm-3,3.95860,R,ugm-3,,,
15-01-2019,04:00,0.26199,R,ugm-3,1.85319,R,ugm-3,2.25490,R,ugm-3,,,
15-01-2019,05:00,0.16374,R,ugm-3,1.95372,R,ugm-3,2.20479,R,ugm-3,,,
15-01-2019,06:00,0.19649,R,ugm-3,2.00373,R,ugm-3,2.30501,R,ugm-3,,,
15-01-2019,07:00,1.57192,R,ugm-3,3.75315,R,ugm-3,6.16339,R,ugm-3,,,
15-01-2019,08:00,1.08070,R,ugm-3,4.25580,R,ugm-3,5.91285,R,ugm-3,,,
15-01-2019,09:00,0.78596,R,ugm-3,5.30903,R,ugm-3,6.51415,R,ugm-3,,,